Terminal Aerodrome Forecast
Issued by NWS

Home | Current Version | Previous Version | Text Only | Print | Product List | Glossary On
Versions: 1 2 3 4 5 6 7 8 9 10 11 12 13 14 15 16 17 18 19 20 21 22 23 24 25 26 27 28 29 30 31 32 33 34 35 36 37 38 39 40 41 42 43 44 45 46 47 48
826
FTUS45 KBOU 221909 AAA
TAFBJC
TAF AMD
KBJC 221909Z 2219/2318 08005KT P6SM SCT040
     FM230100 VRB03KT P6SM FEW050
     FM230500 25006KT P6SM SKC
     FM231600 13005KT P6SM FEW250=

USA.gov is the U.S. government's official web portal to all federal, state and local government web resources and services.